Regional Weather Roundup
Issued by NWS

Home | Current Version | Previous Version | Text Only | Print | Product List | Glossary On
Versions: 1 2 3 4 5 6 7 8 9 10 11 12 13 14 15 16 17 18 19 20 21 22 23 24 25 26 27 28 29 30 31 32 33 34 35 36 37 38 39 40 41 42 43 44 45 46 47 48 49 50
000
ASUS45 KBOU 030210
RWRCO

WEATHER ROUNDUP FOR COLORADO
NATIONAL WEATHER SERVICE DENVER/BOULDER CO
800 PM MDT THU JUL 02 2015

NOTE: "FAIR" INDICATES FEW OR NO CLOUDS BELOW 12000 FEET WITH NO
SIGNIFICANT WEATHER AND/OR OBSTRUCTIONS TO VISIBILITY.

COZ001>005-013-030-031-030300-
...NORTHWEST COLORADO...

CITY           SKY/WX    TMP DP  RH WIND       PRES   REMARKS
CRAIG          PTCLDY    83  39  21 NE5       30.11R
HAYDEN         PTCLDY    79  43  27 E10       30.15R
MEEKER         CLEAR     82  47  29 NE9       30.13R
MOUNT WERNER   NOT AVBL
STEAMBOAT SPGS PTCLDY    77  46  32 NE12      30.19R
WALDEN         MOCLDY    66  39  37 NE13      30.32S
$$

COZ006>008-011-030300-
...WEST CENTRAL VALLEYS...

CITY           SKY/WX    TMP DP  RH WIND       PRES   REMARKS
GRAND JUNCTION MOCLDY    91  46  21 SW3       29.96S
MONTROSE       MOCLDY    88  45  22 CALM      30.07R
EAGLE          PTCLDY    84  37  18 N9        30.15R
RIFLE          CLEAR     90  39  16 N7        30.03R
DELTA          MOCLDY    94  44  18 CALM      30.01R
NUCLA          MOCLDY    86  45  23 NW5       30.12R
$$

COZ017>023-064>068-030300-
...SOUTHWEST COLORADO...

CITY           SKY/WX    TMP DP  RH WIND       PRES   REMARKS
DURANGO        CLOUDY    70  51  51 SW5       30.18R
CORTEZ         CLEAR     76  56  49 N8        30.10S
PAGOSA SPRINGS CLOUDY    70  49  48 E6        30.29R
TELLURIDE      MOCLDY    70  46  42 CALM      30.40S
WOLF CREEK PAS NOT AVBL
$$

COZ009-010-012-014-032>034-037-058>063-030300-
...CENTRAL COLORADO...

CITY           SKY/WX    TMP DP  RH WIND       PRES   REMARKS
ASPEN          PTCLDY    68  47  46 N3        30.26R
BUENA VISTA    MOCLDY    61  55  80 E3        30.37S
COPPER MTN     PTCLDY    61  37  41 W14       30.62R
BERTHOUD PASS  FAIR      43  34  70 E16G25    30.68R
COTTONWOOD PAS NOT AVBL
GUNNISON       MOCLDY    66  46  48 E22G28    30.30R
KREMMLING      PTCLDY    77  34  20 N8G17     30.25R
LEADVILLE      MOCLDY    54  50  86 S16       30.47R
MONARCH PASS   FOG       45  43  93 E16       30.72S THUNDER VSB<1/4
SALIDA         MOCLDY    64  56  75 W5        30.41S
SUNLIGHT       PTCLDY    66  36  32 NW3       30.54R
WILKERSON PASS MOCLDY    48  41  76 CALM      30.62R
$$

COZ069>075-030300-
...SAN LUIS VALLEY/SANGRE DE CRISTO MOUNTAINS...

CITY           SKY/WX    TMP DP  RH WIND       PRES   REMARKS
ALAMOSA        CLOUDY    60  51  72 CALM      30.30F
LA VETA PASS   CLOUDY    52  50  93 SE3       30.51S
SAGUACHE       TSTM      64  54  68 N6        30.34R
$$

COZ035-036-038>040-030300-
...NORTHERN COLORADO FRONT RANGE...

CITY           SKY/WX    TMP DP  RH WIND       PRES   REMARKS
DENVER INTL AP TSTM      65  58  78 N28G39    30.22R
DMNS CITY PARK   N/A     64  59  83 N3G23     30.23R
AURORA         TSTM      73  53  49 N21G41    30.19R
FRONT RANGE AP TSTM      72  61  68 MISG      30.20R
ERIE MUNI ARPT CLOUDY    65  58  79 NW6G18    30.22R
BOULDER MUN AP CLOUDY    64  61  88 NE6       30.22R
CENTENNIAL     MOCLDY    74  52  46 E7        30.18R
BROOMFIELD     TSTM      77  52  41 N23G35    30.23R
FORT COLLINS   MOCLDY    66  59  77 W5        30.19R
LONGMONT       LGT RAIN  67  61  80 CALM      30.21R
$$

COZ041-046-047-076>085-087-088-030300-
...PIKES PEAK/PALMER DIVIDE AND SOUTHERN FOOTHILLS...

CITY           SKY/WX    TMP DP  RH WIND       PRES   REMARKS
COLO. SPRINGS  PTCLDY    69  58  67 S5        30.23S
A. F. ACADEMY  PTCLDY    68  56  65 S7        30.25R
ELLICOTT       PTCLDY   N/A N/A N/A W6        30.21S
FALCON         PTCLDY    67  56  66 SW5       30.28S
FORT CARSON    NOT AVBL
LIMON          PTCLDY    73  58  59 SE5       30.16S
MONUMENT HILL  NOT AVBL
TRINIDAD       CLOUDY    70  59  68 NE3       30.21S
$$

COZ042>045-048>051-090-091-030300-
...NORTHEAST COLORADO...

CITY           SKY/WX    TMP DP  RH WIND       PRES   REMARKS
GREELEY ARPT   MOCLDY    66  61  82 CALM      30.16R
AKRON          PTCLDY    73  54  51 NE8       30.12S
BURLINGTON     PTCLDY    77  55  46 NE9       30.09S
WRAY           CLEAR     77  55  45 NE6       30.06F
STERLING       PTCLDY    77  55  47 NE6         N/A
HOLYOKE        CLEAR     79  59  50 E7        30.07S
FORT MORGAN    PTCLDY    73  55  52 NE7       30.13R
$$

COZ086-089-092>099-030300-
...SOUTHEAST COLORADO...

CITY           SKY/WX    TMP DP  RH WIND       PRES   REMARKS
PUEBLO         MOCLDY    77  59  53 SW3       30.12S
LA JUNTA       MOCLDY    77  62  59 W7        30.08R
LAMAR          PTCLDY    80  60  50 NE5       30.03R
SPRINGFIELD      N/A     78  53  41 N9        30.10R
$$



USA.gov is the U.S. government's official web portal to all federal, state and local government web resources and services.